Tracking 18784 objects as of 18-August-2017
HD Live streaming from Space Station
objects crossing your sky now

ATLAS CENTAUR DEB

Track ATLAS CENTAUR DEB now!


NORAD ID: 25253
Int'l Code: 1978-068C
Perigee: 868.8 km
Apogee: 35,591.5 km
Inclination: 22.0 °
Period: 640.0 minutes
Semi major axis: 24601 km
RCS: 0.1092 m2 (medium)
Launch date: June 29, 1978
Source: United States (US)
Launch site: AIR FORCE EASTERN TEST RANGE (AFETR)

Note: This is SATELLITE DEBRIS
Your satellite tracking list
Your tracking list is empty





NASA's NSSDC Master Catalog

Two Line Element Set (TLE):
1 25253U 78068C   17227.26848880 -.00000128 +00000-0 -58646-2 0  9993
2 25253 022.0407 030.9106 7057147 004.4922 335.5054 02.24993569165270
Source of the keplerian elements: AFSPC